星链-30151 (STARLINK-30151 )

导读

STARLINK-30151是美国太空探索技术公司(SpaceX)星链(Starlink)卫星星座的一颗卫星,于2023年6月4日发射升空。它隶属于星链第二代(Gen2)组网卫星,旨在为全球提供高速低延迟宽带互联网服务,进一步拓展星链星座的覆盖范围与服务能力,强化SpaceX在全球卫星互联网领域的布局。

基本信息
目录编号:
56827
目录名称:
STARLINK-30151
国际标识:
2023-079E
轨道中心:
EARTH
卫星名称:
星链-30151
卫星全名:
星链-30151 (STARLINK-30151 )
卫星状态:
在轨 (已飞行1188 天)
发射日期:
2023-06-04 UTC
国别 :
美国 (US)
星等 :
--
轨道信息
数据来源 国际轨道数据 AOE轨道数据
星历时间 2026-09-04T11:58:05+0800
10小时前
查看轨道信息
2026-09-03T22:00:00+0800
1天前
查看轨道信息
半长轴 6861.218km 6861.198km
偏心率 0.0000996 0.0001387
轨道倾角 43.001° 42.999°
近地点辐角 288.865° 315.240°
升交点赤经 179.119° 182.409°
平近点角 71.209° 80.446°
近地点 482.397km 482.109km
远地点 483.765km 484.013km
周期 94.267分钟 94.267分钟
每日圈数 15.275695 15.275762
详细信息
固有亮度:
5
最大亮度:
0.5
卫星平台:
Starlink v2.0 mini
覆盖范围:
全球
运营商:
太空探索技术公司
运营商所在国:
美国
制造商(研发单位):
太空探索技术公司
制造商所在国:
美国
使用方式:
暂无
卫星简介
星链(Starlink)计划是由太空探索技术公司(SpaceX)提出的一个巨型低轨卫星互联网星座项目,计划在2019年至2024年间在太空搭建由约1.2万颗卫星组成的“星链”网络,其中1584颗将部署在地球上空550千米处的近地轨道,并从2020年开始工作。该卫星仍在工作。
2D轨道图
3D轨道图
轨道高度分析图
轨道倾角分析图
轨道综合分析图
查看轨道综合分析图
交会数据列表
事件ID 空间交会对象 最接近时刻(TCA) 交会距离 交会风险概率(CRP) 交会风险指数(CRI) 操作
CDM_260906-120505-682706-433421
2026-09-06T
12:05:35+0000
0.198 km
中距离
3.755819E-4 高风险 0.86
CDM_260906-110005-682706-289621
2026-09-06T
11:00:06+0000
0.799 km
远距离
4.321743E-5 中风险 0.68
CDM_260906-154305-682705-993221
2026-09-06T
15:43:49+0000
1.138 km
极远距离
1.276928E-5 中风险 0.57
CDM_260906-142605-682706-433421
2026-09-06T
14:26:48+0000
1.282 km
极远距离
2.475425E-6 低风险 0.43
CDM_260906-140905-682705-993221
2026-09-06T
14:09:40+0000
2.004 km
极远距离
2.167743E-6 低风险 0.42
CDM_260906-160005-682706-433421
2026-09-06T
16:00:57+0000
1.608 km
极远距离
1.259685E-6 低风险 0.37
CDM_260906-092505-682706-289621
2026-09-06T
09:25:57+0000
2.792 km
极远距离
1.162745E-6 低风险 0.36
CDM_260906-133905-682706-433421
2026-09-06T
13:39:44+0000
2.357 km
极远距离
5.408395E-7 极低风险 0.3
CDM_260906-103105-682706-433421
2026-09-06T
10:31:25+0000
2.605 km
极远距离
4.662933E-7 极低风险 0.28